Other Surface Observations
Issued by NWS Tucson, AZ

Current Version | Previous Version | Text Only | Print | Product List | Glossary On
Versions: 1 2 3 4 5 6 7 8 9 10 11 12 13 14 15 16 17 18 19 20 21 22 23 24 25 26 27 28 29 30 31 32 33 34 35 36 37 38 39 40 41 42 43 44 45 46 47 48 49 50
000
SXUS55 KTWC 301315
OSOTWC

WEATHER ROUNDUP FOR SOUTHEAST ARIZONA
NATIONAL WEATHER SERVICE TUCSON AZ
615 AM MST FRI JAN 30 2015

AZZ504>506-514-301415-
LOCATION       SKY/WX    TMP DP  RH WIND       PRES   REMARKS
TUCSON         LGT RAIN  57  52  83 SE8       29.96S
DAVIS-MONTHAN  LGT RAIN  57  54  88 SE14      29.94R
CHILDRENS PARK N/A       56  55  95 SE6               PIMA CO DEQ
ALVERNON/22ND  N/A      N/A N/A N/A N/A               PIMA CO DEQ
CHERRY/GLENN   N/A      N/A N/A N/A N/A               PIMA CO DEQ
TANGERINE      N/A       55 N/A N/A S1                PIMA CO DEQ
CONTL RANCH    N/A       57  55  93 S7                PIMA CO DEQ
GRANT/1ST      N/A       56  55  95 SE5               PIMA CO DEQ
CRAYCROFT/22ND N/A      N/A N/A N/A N/A               PIMA CO DEQ
GOLFLINKS/KOLB N/A       56  54  94 E4                PIMA CO DEQ
AJO/12TH       N/A       56  53  89 SE10              PIMA CO DEQ
SAGUARO EAST   N/A      N/A N/A N/A N/A               PIMA CO DEQ
FAIRGROUNDS    N/A       53 N/A N/A SE17              PIMA CO DEQ
SAGUARO        N/A       57  54  91 SE3G11            *SABINO CYN
SAN CARLOS     N/A       49  45  87 SE8G24            *SAN CARLOS
GREEN VALLEY   N/A       54  53  98 NW0               PIMA CO DEQ
HORSE CAMP CYN N/A       46  44  91 E20G33            *ARAVAIPA CYN
RINCON MTNS    N/A       39  39  100 SE3G20           *NR MANNING CAMP
$$

AZZ509>511-301415-
LOCATION       SKY/WX    TMP DP  RH WIND       PRES   REMARKS
SAFFORD        LGT RAIN  47  45  93 SE13      30.08F
STRAY HORSE    N/A       33  32  98 E4                *
TRAIL CABIN    N/A       39  38  98 E11G19            *N OF GRANVILLE
BLACK HILLS    N/A       48  46  92 SE16G24           *N OF FT THOMAS
DRY LAKE       N/A       36  36  100 SE10G18          *NATANES MTNS
NOON CREEK     N/A       42  39  89 E6G17             *PINALENO MTNS
COLUMBINE      N/A       37  37  100 S10G21           *PINALENO MTNS
GUTHRIE        N/A       38  38  100 E10G23           *SW OF GUTHRIE
$$

AZZ502-503-513-301415-
LOCATION       SKY/WX    TMP DP  RH WIND       PRES   REMARKS
NOGALES        LGT RAIN  55  51  86 SE9       29.98F
SELLS          N/A       55  55  100 W3G10            *
SASABE         N/A       55  54  98 CALM              *ALTAR VLY
HOPKINS        N/A       43  43  100 S11G25           *SANTA RITA MTNS
CARR CYN       N/A       48  44  85 S5G26             *W OF HEREFORD
$$

AZZ507-508-512-301415-
LOCATION       SKY/WX    TMP DP  RH WIND       PRES   REMARKS
SIERRA VISTA   LGT RAIN  48  48 100 SE6       30.02S
DOUGLAS        LGT RAIN  48  45  89 E7        30.05F
EMPIRE MTNS    N/A       50  50  99 SE5G11            *LAS CIENEGAS NCA
MULESHOE RANCH N/A       50  46  87 SE7G18            *PRESERVE
HEADQUARTERS   N/A       42  40  93 NE11G27           *CHIRICAHUA MTNS
$$

.............................NOTES.............................
THIS IS AN AUTOMATED COLLECTIVE WITH MINIMAL QUALITY CONTROL.
PIMA CO DEQ SITES HAVE NONSTANDARD WIND SENSOR HEIGHTS.
PIMA CO DEQ SITES DO NOT REPORT WIND GUSTS.
* INDICATES WIND SENSORS LOCATED AT 20 FEET INSTEAD OF 33 FEET.
..............................KEY..............................
SKY/WX - SKY CONDITION/WEATHER
TMP    - TEMPERATURE IN FAHRENHEIT
DP     - DEWPOINT IN FAHRENHEIT
RH     - RELATIVE HUMIDITY IN PERCENT
WIND   - DIRECTION AND SPEED IN MILES PER HOUR (MPH)
VRB    - VARIABLE WIND DIRECTION
PRES   - MEAN SEA LEVEL PRESSURE IN INCHES OF MERCURY
         F - FALLING PRESSURE   R - RISING PRESSURE
         S - STEADY PRESSURE
VSB    - VISIBILITY IN MILES
HX     - HEAT INDEX IN FAHRENHEIT
WCI    - WIND CHILL INDEX IN FAHRENHEIT
N/A    - NOT AVAILABLE
AFB    - AIR FORCE BASE
         DAVIS-MONTHAN IS DAVIS-MONTHAN AIR FORCE BASE
CYN    - CANYON
MTNS   - MOUNTAINS
NCA    - NATIONAL CONSERVATION AREA
NR     - NEAR
VLY    - VALLEY
CONTL  - CONTINENTAL
PIMA CO DEQ - PIMA COUNTY DEPT OF ENVIRONMENTAL QUALITY



USA.gov is the U.S. government's official web portal to all federal, state and local government web resources and services.